Wind_Speed
29 27 25 29 31 32 32 29 31 31 31 31 35 30 29 27 27 25 26 27 27 28 33 40 40 37 40 45 56 60 68 71 76 78 81 80 77 73 67 66 60 54 51 53
18 20 21 20 22 26 32 33 32 34 34 31 34 30 32 30 32 29 28 28 28 30 30 26 31 33 36 42 50 50 58 70 76 76 78 81 77 74 71 63 61 55 54 53
21 20 19 18 16 16 24 33 33 29 29 31 30 31 32 34 35 29 25 22 20 25 25 27 32 34 31 36 45 51 54 56 75 76 76 79 82 77 72 68 64 63 60 54
23 23 15 17 11 6 5 18 29 31 26 21 22 27 31 32 27 22 21 15 20 25 20 24 29 28 28 39 40 45 49 54 61 80 78 76 78 77 76 70 64 61 55 53
24 29 25 18 13 4 2 7 20 25 22 18 19 20 23 21 18 17 19 22 23 11 18 20 15 16 17 24 29 32 43 42 52 65 81 76 73 74 73 65 62 59 59 60
23 26 33 30 29 23 13 10 16 20 22 20 19 20 17 14 11 14 18 14 13 8 10 6 12 4 9 14 12 26 33 33 40 46 67 78 72 70 69 66 63 62 61 58
33 26 28 31 33 33 29 20 17 16 20 19 15 12 10 7 8 7 11 14 11 11 6 2 6 10 7 5 9 10 23 31 34 34 49 67 67 64 65 66 62 61 57 58
44 37 31 28 29 29 25 24 19 18 15 12 8 5 3 2 3 7 8 9 7 14 12 6 6 11 8 11 14 16 6 3 22 18 34 48 48 64 64 63 60 59 58 58
45 45 41 33 28 27 25 21 18 16 14 12 9 6 2 2 0 2 11 6 17 21 9 5 4 6 13 5 7 9 4 6 10 20 35 54 54 59 54 53 53 55 57 58
44 44 47 48 39 30 23 21 17 14 13 9 5 2 3 3 2 4 10 8 17 16 16 12 10 12 3 16 4 4 4 9 14 15 35 44 50 51 49 48 52 48 54 55
40 42 42 45 46 47 38 23 18 15 11 6 2 4 5 6 4 5 10 6 13 13 13 11 12 11 10 8 8 4 7 8 9 20 29 39 42 47 42 47 41 51 27 33
34 37 37 38 39 40 41 41 41 31 21 11 7 11 10 10 8 6 6 6 6 6 8 13 10 10 16 15 13 7 5 4 9 15 34 40 20 26 41 40 46 34 36 30
29 30 32 33 34 35 35 34 34 34 33 35 24 14 11 11 12 9 6 5 6 5 3 6 8 5 6 14 16 12 6 8 10 15 17 20 25 35 32 31 27 31 22 26
21 24 26 28 30 31 31 32 31 31 32 31 29 31 21 5 12 13 9 7 4 3 3 0 1 6 4 7 12 14 10 11 14 14 15 20 26 34 35 31 29 26 25 31
19 18 20 21 22 23 25 27 29 29 31 32 33 33 33 29 4 14 15 12 9 7 5 1 2 2 4 5 6 7 9 10 11 10 14 19 16 15 20 26 29 23 27 26
17 17 16 15 17 17 18 19 21 25 28 30 33 33 35 36 37 10 13 17 15 11 9 10 7 6 5 6 7 7 9 7 7 8 11 14 16 15 14 16 21 25 30 28
19 15 15 15 12 13 14 14 14 18 21 24 27 29 32 34 37 38 31 2 14 17 16 15 16 14 13 12 11 10 11 14 15 13 11 9 8 10 11 11 12 15 11 10
21 20 17 15 14 12 11 12 13 11 14 17 19 23 28 30 32 33 32 34 32 12 6 14 19 19 20 20 20 19 18 16 13 11 11 8 8 7 8 9 11 13 15 16
23 23 21 19 17 15 14 13 11 12 10 11 12 15 18 21 24 26 28 29 29 29 29 29 25 12 8 21 25 26 26 25 22 18 15 13 14 13 14 16 18 21 21 24
23 23 24 22 21 19 15 15 15 12 12 10 8 8 9 12 14 17 19 21 22 23 24 23 24 23 20 19 21 16 5 15 22 21 17 19 21 19 16 12 8 3 1 5
22 22 23 24 25 24 19 17 17 18 16 14 12 11 9 8 7 8 9 11 13 14 15 16 17 17 17 17 17 17 18 19 16 9 6 5 4 3 4 5 6 7 8 9
22 21 19 19 21 25 24 23 21 19 20 19 18 17 15 13 12 11 9 8 7 5 6 7 7 7 9 11 13 13 14 13 12 9 7 5 5 5 5 6 8 8 10 12
26 26 23 23 22 25 24 26 24 22 22 22 23 22 22 20 18 17 15 14 13 12 9 7 7 7 7 5 4 4 5 5 4 3 2 3 4 5 7 10 12 13 15 18
22 29 22 24 24 27 27 24 23 26 27 26 25 24 25 26 25 25 23 21 21 20 19 19 17 14 13 12 11 10 10 10 11 10 11 13 14 16 17 18 21 22 23 26
20 28 29 17 23 23 22 23 19 20 24 28 30 29 29 28 30 29 29 28 27 25 24 24 23 23 21 20 19 19 19 18 18 19 20 20 21 23 24 26 29 30 31 33
19 30 29 19 26 21 20 26 26 21 21 23 26 29 33 35 33 32 32 32 32 31 31 30 29 28 28 27 28 28 29 29 29 28 29 29 30 30 31 33 35 37 38 39
Wind_Direction
307 306 299 285 275 269 262 252 245 244 246 240 238 243 248 260 260 263 269 271 277 273 269 257 257 252 253 248 240 241 235 233 232 229 222 224 229 230 232 230 229 230 231 232
344 334 326 307 284 262 254 251 245 241 246 240 239 239 248 257 262 263 269 279 281 274 267 268 268 260 253 248 246 241 233 227 230 231 226 222 224 230 231 232 231 231 232 233
358 339 332 330 305 274 248 240 240 240 240 237 238 242 249 256 260 266 277 288 278 264 261 265 266 266 263 254 248 244 241 233 223 226 228 224 222 224 229 229 230 235 226 228
18 14 351 347 329 299 304 235 223 225 230 228 228 236 242 253 266 272 287 300 299 285 274 274 261 266 263 261 258 248 238 236 229 219 223 225 223 224 225 228 228 227 233 238
24 28 24 22 15 302 249 256 199 203 207 209 216 231 245 257 265 281 302 306 310 290 292 298 246 270 288 288 262 248 235 241 235 227 218 219 220 222 224 226 226 225 227 231
31 38 41 47 48 46 51 94 145 157 169 185 205 228 248 258 266 312 326 309 316 342 285 262 223 305 251 293 299 237 228 236 239 240 223 214 214 218 221 222 222 223 226 228
37 42 42 48 48 53 58 78 111 135 152 172 195 232 248 249 268 341 339 325 335 22 335 250 243 319 353 320 94 116 214 226 230 237 226 214 210 213 218 218 219 220 221 227
38 45 46 45 50 55 65 68 79 84 111 121 165 159 104 306 327 23 20 17 42 19 42 115 113 352 29 87 135 15 335 215 200 190 213 197 215 213 215 219 218 219 226 230
39 42 45 48 49 53 60 74 76 82 89 110 112 117 85 37 302 5 5 63 40 32 36 50 121 44 357 340 319 334 30 304 245 197 194 199 209 205 211 216 217 222 227 225
38 42 46 47 47 53 55 57 67 73 79 85 103 108 48 28 241 300 357 356 16 31 36 34 106 112 21 42 22 241 318 213 223 224 200 201 207 203 206 214 215 224 233 243
36 39 42 47 46 50 51 51 48 48 56 56 352 306 295 336 351 326 348 311 355 351 20 60 103 100 87 69 18 68 44 321 231 213 198 201 200 205 206 213 216 223 237 236
35 38 38 42 46 45 50 51 53 53 43 23 321 297 292 295 306 309 318 333 326 34 28 49 109 106 106 82 77 79 320 321 154 173 187 193 204 219 217 212 227 258 261 247
27 33 40 41 42 46 47 45 49 49 48 46 34 355 304 272 270 271 274 282 314 25 15 53 108 116 129 111 110 86 93 209 156 169 192 200 217 206 214 222 224 242 245 235
21 25 30 37 40 39 42 45 44 43 43 43 42 39 27 309 233 240 232 235 248 254 92 24 105 124 130 123 121 123 128 130 149 165 182 199 210 215 231 230 238 228 221 230
2 11 22 25 32 38 42 39 38 37 37 37 37 40 41 37 12 210 221 221 229 227 235 203 323 281 154 162 153 123 111 114 150 167 175 194 190 202 210 219 226 245 231 231
351 353 353 9 16 24 27 38 39 31 35 36 33 36 40 43 46 47 207 215 226 229 232 243 247 261 257 192 191 194 183 180 171 157 153 159 173 193 204 223 235 228 235 242
341 341 341 339 344 359 6 16 27 25 28 39 37 35 36 42 46 49 54 113 227 236 229 228 238 243 248 252 246 229 214 206 204 204 206 201 189 181 190 205 227 234 259 271
327 328 331 329 328 328 339 350 1 12 23 27 39 44 42 38 42 45 51 57 59 66 243 245 249 246 248 251 254 260 258 247 233 224 222 226 229 226 238 241 250 257 267 276
312 315 318 317 319 319 317 315 324 338 347 1 19 32 34 42 38 38 45 50 50 57 62 69 74 73 256 252 258 263 261 258 258 263 271 272 276 271 269 273 275 273 273 274
312 306 303 305 307 309 309 299 300 295 307 317 327 350 11 23 35 40 39 42 45 46 48 53 59 62 61 60 59 53 344 260 254 258 270 280 285 281 278 278 266 225 23 3
316 314 305 301 302 302 300 296 291 289 288 283 292 297 302 317 336 1 24 38 50 52 46 41 41 40 49 55 57 58 63 65 74 113 162 152 76 76 58 23 11 356 342 311
314 316 309 306 304 296 296 296 292 289 285 283 276 277 283 286 285 289 297 318 338 13 25 32 44 49 48 44 40 40 44 52 62 71 73 62 30 10 350 339 336 320 307 301
306 301 305 301 303 303 305 295 293 296 293 288 282 279 273 271 275 276 271 273 282 286 292 292 300 312 328 342 358 13 16 14 11 4 336 313 299 290 292 297 294 290 293 297
292 290 291 297 293 310 328 308 301 292 287 288 287 281 275 275 272 268 270 270 269 271 272 279 280 277 276 276 278 285 289 289 290 289 288 288 290 290 290 291 291 292 293 293
277 281 281 299 292 300 321 316 316 309 303 294 286 284 281 275 272 270 268 266 267 267 267 270 272 270 269 270 271 272 271 270 272 277 279 280 281 282 283 284 285 285 285 287
248 262 277 277 277 290 300 300 301 300 304 302 302 290 280 278 278 274 269 267 266 264 265 266 267 269 271 269 267 268 268 270 271 271 271 273 275 278 282 285 287 290 291 291
Height
5663 5657 5653 5650 5649 5648 5649 5652 5656 5659 5661 5667 5670 5674 5674 5675 5674 5673 5672 5671 5671 5669 5665 5662 5662 5665 5667 5668 5670 5675 5684 5693 5697 5709 5719 5728 5738 5750 5757 5765 5774 5783 5790 5793
5659 5652 5645 5639 5637 5637 5638 5641 5645 5651 5655 5662 5664 5670 5670 5670 5668 5668 5667 5666 5662 5659 5657 5656 5654 5654 5655 5655 5656 5658 5664 5671 5680 5693 5705 5714 5726 5735 5747 5757 5767 5777 5782 5784
5656 5649 5641 5634 5629 5626 5625 5630 5639 5646 5648 5655 5661 5663 5665 5664 5663 5664 5663 5660 5655 5651 5651 5650 5648 5645 5645 5644 5643 5645 5649 5654 5662 5676 5687 5700 5708 5721 5731 5743 5751 5762 5767 5775
5656 5647 5639 5632 5625 5622 5619 5620 5627 5635 5643 5652 5657 5659 5658 5659 5659 5660 5659 5656 5651 5647 5645 5643 5641 5638 5637 5632 5631 5632 5635 5639 5645 5655 5669 5685 5698 5710 5721 5732 5743 5754 5761 5765
5657 5648 5639 5631 5625 5620 5617 5616 5619 5629 5640 5649 5653 5655 5655 5657 5658 5658 5656 5653 5647 5643 5641 5634 5634 5635 5631 5624 5619 5620 5626 5631 5635 5640 5651 5668 5685 5698 5709 5721 5734 5743 5748 5756
5658 5652 5644 5635 5627 5622 5618 5617 5622 5629 5637 5645 5649 5652 5654 5655 5657 5656 5653 5650 5645 5641 5637 5633 5633 5631 5627 5622 5614 5614 5619 5624 5628 5632 5639 5655 5673 5686 5697 5709 5719 5729 5737 5746
5662 5654 5647 5641 5635 5630 5627 5628 5630 5634 5638 5643 5647 5651 5653 5653 5655 5654 5651 5649 5644 5640 5636 5632 5632 5629 5626 5620 5616 5612 5612 5616 5617 5622 5631 5647 5664 5680 5688 5698 5709 5720 5729 5735
5668 5659 5651 5645 5642 5639 5637 5638 5639 5641 5642 5645 5648 5651 5652 5653 5652 5652 5649 5647 5644 5640 5634 5632 5631 5627 5625 5620 5617 5616 5614 5614 5614 5615 5627 5647 5668 5670 5677 5690 5702 5712 5721 5729
5676 5668 5659 5653 5648 5646 5644 5644 5645 5646 5647 5649 5651 5652 5654 5653 5653 5651 5650 5647 5644 5641 5638 5635 5632 5628 5624 5623 5620 5617 5617 5617 5618 5624 5629 5644 5645 5661 5672 5685 5696 5707 5713 5718
5686 5678 5670 5663 5657 5653 5650 5650 5650 5650 5652 5652 5653 5653 5654 5654 5653 5651 5650 5649 5646 5644 5641 5637 5635 5631 5627 5626 5623 5620 5620 5622 5621 5623 5631 5641 5650 5660 5672 5682 5691 5700 5707 5709
5694 5687 5682 5674 5669 5662 5658 5654 5653 5653 5655 5655 5655 5655 5654 5653 5652 5652 5649 5649 5648 5645 5643 5640 5638 5635 5633 5630 5627 5624 5623 5621 5623 5626 5633 5643 5652 5664 5672 5679 5686 5692 5697 5700
5701 5695 5689 5683 5678 5673 5669 5664 5661 5658 5657 5654 5654 5654 5652 5651 5651 5650 5650 5649 5649 5646 5644 5642 5640 5639 5635 5634 5632 5628 5628 5627 5628 5627 5636 5646 5654 5662 5667 5674 5682 5684 5688 5693
5706 5702 5698 5692 5687 5681 5677 5674 5670 5666 5662 5657 5652 5649 5645 5646 5646 5648 5647 5648 5648 5647 5645 5644 5642 5642 5640 5637 5636 5635 5633 5630 5635 5639 5643 5648 5653 5659 5667 5674 5679 5683 5685 5686
5711 5706 5702 5698 5692 5688 5684 5680 5675 5671 5668 5664 5659 5652 5643 5638 5639 5642 5644 5645 5646 5647 5646 5644 5644 5643 5642 5642 5641 5639 5639 5638 5639 5641 5644 5649 5653 5658 5664 5669 5673 5676 5678 5680
5712 5709 5705 5701 5698 5693 5689 5685 5680 5675 5672 5667 5662 5655 5648 5639 5634 5634 5638 5641 5643 5644 5645 5644 5643 5643 5644 5644 5644 5644 5644 5643 5643 5644 5646 5651 5653 5656 5659 5664 5668 5671 5674 5676
5713 5710 5707 5704 5700 5697 5693 5689 5684 5680 5676 5671 5666 5661 5654 5647 5639 5632 5632 5636 5638 5641 5642 5643 5643 5643 5643 5643 5644 5645 5645 5647 5648 5649 5649 5651 5652 5655 5658 5661 5665 5667 5670 5673
5712 5709 5707 5704 5701 5698 5696 5692 5688 5683 5680 5675 5671 5666 5660 5655 5649 5642 5635 5633 5635 5636 5638 5639 5640 5641 5641 5643 5643 5643 5644 5645 5647 5648 5650 5652 5653 5654 5657 5660 5663 5665 5667 5669
5711 5708 5705 5702 5700 5699 5696 5692 5689 5686 5683 5679 5675 5671 5666 5662 5657 5652 5648 5643 5639 5635 5635 5636 5637 5638 5638 5639 5640 5641 5642 5643 5644 5645 5648 5649 5652 5653 5655 5656 5658 5659 5661 5661
5706 5704 5702 5700 5697 5696 5694 5692 5689 5686 5685 5681 5678 5674 5671 5667 5664 5660 5656 5652 5648 5644 5641 5640 5637 5635 5634 5634 5635 5635 5635 5636 5637 5640 5643 5645 5647 5648 5650 5650 5651 5652 5652 5654
5701 5699 5697 5695 5693 5691 5691 5688 5687 5686 5683 5681 5679 5676 5673 5670 5667 5665 5661 5657 5654 5651 5648 5646 5642 5640 5638 5636 5634 5631 5628 5628 5631 5636 5639 5641 5642 5642 5642 5642 5643 5643 5643 5642
5696 5695 5692 5690 5688 5688 5685 5684 5683 5682 5683 5678 5677 5675 5673 5671 5669 5666 5664 5661 5659 5656 5653 5650 5648 5646 5644 5641 5639 5636 5633 5631 5631 5633 5638 5639 5638 5639 5639 5640 5640 5639 5639 5641
5692 5690 5688 5685 5682 5681 5680 5679 5678 5677 5675 5674 5673 5672 5671 5669 5667 5665 5663 5662 5660 5657 5655 5653 5651 5649 5648 5645 5642 5640 5638 5636 5636 5638 5639 5639 5639 5638 5639 5638 5638 5638 5639 5639
5687 5684 5682 5681 5678 5673 5673 5672 5672 5670 5669 5669 5668 5668 5666 5665 5664 5663 5661 5660 5659 5658 5656 5653 5651 5649 5647 5646 5645 5643 5642 5641 5640 5639 5638 5637 5637 5637 5637 5636 5635 5634 5634 5632
5681 5675 5675 5673 5672 5668 5666 5664 5664 5663 5662 5662 5660 5660 5659 5659 5658 5658 5657 5656 5654 5652 5652 5651 5650 5648 5646 5644 5643 5642 5641 5640 5639 5637 5637 5636 5635 5634 5632 5631 5630 5628 5626 5625
5674 5668 5666 5667 5664 5661 5660 5658 5656 5655 5655 5654 5653 5652 5650 5650 5649 5649 5649 5649 5648 5647 5645 5644 5643 5643 5642 5641 5639 5638 5637 5636 5635 5634 5632 5631 5630 5628 5627 5625 5624 5622 5619 5618
5665 5660 5656 5658 5653 5653 5653 5650 5649 5647 5645 5644 5644 5642 5641 5641 5640 5640 5639 5639 5639 5639 5638 5637 5636 5635 5634 5634 5633 5632 5631 5629 5628 5626 5625 5623 5622 5620 5618 5616 5614 5611 5609 5607